Location: Boulin
(43.2500°N, 0.1333°E)
Time: 01:17:24
(UTC+00:00)

SJ-6F - Pass Details

Date: 11 December 2025
Orbit: 543 x 569 km, 97.9° (Epoch: 17 January)

Event Time Altitude Azimuth Distance (km) Brightness Sun altitude
Rises 17:42:56 0° 161° (SSE) 2,714 7.9 -13.8°
Reaches altitude 10° 17:45:02 10° 159° (SSE) 1,829 7.0 -14.2°
Maximum altitude 17:48:58 73° 75° (ENE) 589 4.2 -14.9°
Drops below altitude 10° 17:52:59 10° 351° (N) 1,860 6.9 -15.6°
Sets 17:55:09 0° 350° (N) 2,765 7.8 -16.0°
